This is the latest recevied weather packets stored in our database for station/object KS5S. If no packets are shown the sender has not sent any weather packets the latest 1 day(s).
| Time | Temp. | Humidity | Pressure | Rain* | Wind** | Luminosity | Snow |
|---|---|---|---|---|---|---|---|
| 1777989416 | 23.33° C | 87% | 1003.3 hPa | 0 mm | 3.13 m/s, 209° | 208 W/m² | - |
| 1777989113 | 23.33° C | 87% | 1003.7 hPa | 0 mm | 4.47 m/s, 193° | 182 W/m² | - |
| 1777988808 | 23.33° C | 87% | 1003.4 hPa | 0 mm | 2.24 m/s, 208° | 186 W/m² | - |
| 1777988506 | 23.33° C | 87% | 1003.4 hPa | 0 mm | 3.13 m/s, 191° | 204 W/m² | - |
| 1777988203 | 23.33° C | 87% | 1003.5 hPa | 0 mm | 2.24 m/s, 221° | 174 W/m² | - |
| 1777987899 | 23.33° C | 88% | 1003.7 hPa | 0 mm | 3.58 m/s, 204° | 189 W/m² | - |
| 1777987595 | 23.33° C | 88% | 1003.4 hPa | 0 mm | 3.13 m/s, 210° | 161 W/m² | - |
| 1777987293 | 23.33° C | 88% | 1003.3 hPa | 0 mm | 2.24 m/s, 220° | 179 W/m² | - |
| 1777986989 | 22.78° C | 88% | 1003.5 hPa | 0 mm | 1.34 m/s, 228° | 157 W/m² | - |
| 1777986687 | 22.78° C | 89% | 1003.1 hPa | 0 mm | 2.24 m/s, 217° | 166 W/m² | - |
| 1777986385 | 22.78° C | 90% | 1003.3 hPa | 0 mm | 1.79 m/s, 200° | 135 W/m² | - |
| 1777986084 | 22.22° C | 90% | 1003.5 hPa | 0 mm | 3.13 m/s, 186° | 127 W/m² | - |
| 1777985780 | 22.22° C | 90% | 1003.7 hPa | 0 mm | 4.02 m/s, 208° | 113 W/m² | - |
| 1777985477 | 22.22° C | 91% | 1003.5 hPa | 0 mm | 0.89 m/s, 206° | 94 W/m² | - |
| 1777985173 | 21.67° C | 92% | 1003.3 hPa | 0 mm | 1.79 m/s, 241° | 81 W/m² | - |
| 1777984870 | 21.67° C | 92% | 1003.3 hPa | 0 mm | 1.79 m/s, 216° | 89 W/m² | - |
| 1777984566 | 21.67° C | 93% | 1003 hPa | 0 mm | 2.24 m/s, 191° | 76 W/m² | - |
| 1777984262 | 21.67° C | 93% | 1002.9 hPa | 0 mm | 0.89 m/s, 230° | 67 W/m² | - |
| 1777983959 | 21.11° C | 94% | 1003 hPa | 0 mm | 2.24 m/s, 196° | 52 W/m² | - |
| 1777983656 | 21.11° C | 94% | 1002.6 hPa | 0 mm | 5.36 m/s, 182° | 41 W/m² | - |
| 1777983347 | 21.11° C | 94% | 1002.8 hPa | 0 mm | 3.13 m/s, 175° | 33 W/m² | - |
| 1777983044 | 21.11° C | 95% | 1002.7 hPa | 0 mm | 2.68 m/s, 200° | 27 W/m² | - |
| 1777982740 | 21.11° C | 95% | 1002.9 hPa | 0 mm | 3.13 m/s, 186° | 21 W/m² | - |
| 1777982436 | 20.56° C | 95% | 1002.6 hPa | 0 mm | 2.68 m/s, 193° | 14 W/m² | - |
| 1777982131 | 20.56° C | 95% | 1002.7 hPa | 0 mm | 2.24 m/s, 213° | 11 W/m² | - |
* Rain latest hour (hover to see other rain measurements)
** Current wind speed in m/s (hover to see current wind gust speed)